Location: Killam
(52.7910°N, 111.8608°W)
Time: 16:22:56
(UTC+00:00)

Vanguard 2 Rocket - Pass Details

Date: 24 February 2026
Orbit: 553 x 3286 km, 32.9° (Epoch: 11 March)

Event Time Altitude Azimuth Distance (km) Brightness Sun altitude
Rises 22:03:09 0° 263° (W) 7,231 12.2 21.0°
Reaches altitude 10° 22:09:09 10° 254° (WSW) 6,054 12.1 20.4°
Maximum altitude 22:23:09 29° 205° (SSW) 3,889 11.8 19.0°
Drops below altitude 10° 22:33:16 10° 151° (SSE) 4,314 10.6 18.0°
Sets 22:36:42 0° 140° (SE) 4,933 10.7 17.6°
